Temperature
23 23 23 24 26 26 27 28 28 29 31 30 30 30 31 32 32 32 32 31 31 30 30 29 28 27 26 25 24 22 21 20 20 19 18 18 18 18 18 18 18 18 18 17
23 23 24 26 27 26 26 27 28 30 31 30 30 30 31 32 32 32 31 31 30 29 29 29 28 27 26 24 23 22 21 20 19 19 18 18 18 18 18 18 18 17 17 16
23 24 25 25 26 26 26 26 28 29 30 30 29 28 30 31 31 31 30 30 29 28 27 27 27 27 25 24 23 22 21 20 19 18 18 18 17 17 17 17 17 16 16 15
24 25 25 25 25 26 25 27 27 28 28 28 28 26 28 30 30 30 29 28 26 25 25 24 24 24 24 24 23 22 21 20 19 18 18 18 18 17 16 16 15 15 15 14
24 25 25 25 26 26 26 27 27 27 27 27 28 27 28 30 29 29 27 25 23 22 21 20 20 21 22 22 22 21 20 19 18 18 17 17 17 16 16 15 15 14 14 13
25 26 26 26 26 27 27 27 27 27 26 25 26 26 27 29 29 27 23 20 19 18 18 18 18 19 19 20 20 20 19 18 18 17 17 16 16 15 15 14 14 13 13 12
24 25 26 27 26 26 26 25 24 24 24 24 27 26 27 25 24 23 20 17 16 16 16 16 16 17 17 17 18 18 18 17 16 16 16 15 15 14 14 14 13 12 11 11
23 23 25 26 26 25 25 25 24 23 24 26 27 27 26 23 21 19 17 16 15 14 14 14 15 15 15 15 16 16 16 16 15 15 15 14 14 13 13 12 12 11 11 11
23 24 26 26 26 26 25 25 26 25 25 25 27 27 23 22 20 19 17 15 13 13 13 13 14 14 14 14 14 15 15 14 14 14 14 13 13 12 12 11 11 11 10 10
24 23 25 26 27 26 26 26 25 24 23 24 26 26 24 22 20 18 16 14 13 12 12 13 13 13 13 13 13 13 13 13 13 13 12 12 12 11 11 10 10 10 9 9
24 23 24 25 25 25 25 25 25 25 25 24 24 24 25 22 20 18 15 13 12 12 12 12 12 12 12 12 12 12 12 12 12 12 11 11 11 10 10 10 9 9 8 8
24 23 22 24 26 26 26 25 25 24 24 25 24 23 24 21 19 16 14 12 11 11 11 11 11 12 12 12 11 11 11 11 11 11 11 10 10 10 9 9 8 8 7 7
21 22 21 21 23 24 24 25 24 24 24 24 23 22 21 19 17 15 13 11 11 11 11 11 11 11 11 11 11 11 11 10 10 10 10 9 9 8 8 8 7 7 7 6
20 21 20 18 18 19 21 22 22 23 22 23 23 21 19 17 15 14 12 11 11 10 10 10 10 10 10 10 10 10 10 9 9 9 8 8 8 7 7 7 6 6 6 6
21 21 21 21 21 20 20 20 20 21 21 21 20 19 18 16 14 13 12 11 11 10 10 10 10 10 10 10 9 9 9 9 8 8 7 7 7 7 6 6 6 6 6 5
21 20 21 21 21 21 20 20 20 20 20 20 19 16 15 14 13 12 11 11 10 10 9 9 9 9 9 9 9 8 8 8 8 7 7 7 6 6 6 6 5 5 5 5
20 20 19 20 21 21 19 19 19 19 19 19 17 15 14 12 12 11 11 10 10 9 9 9 9 8 8 8 8 8 7 7 7 7 6 6 6 6 5 5 5 4 4 4
19 19 19 19 20 18 17 19 19 18 17 17 15 14 12 10 9 9 10 9 9 8 8 8 8 8 8 7 7 7 7 7 6 6 6 5 5 5 5 4 4 4 3 3
20 19 19 19 18 17 16 17 18 17 16 15 14 13 11 10 10 8 8 9 8 8 8 8 8 7 7 7 6 6 6 6 6 5 5 5 5 5 4 4 4 3 3 3
20 20 19 18 17 15 15 17 18 18 14 14 14 13 12 13 11 8 8 8 8 8 7 7 7 7 6 6 6 6 6 6 5 5 5 5 4 4 4 4 3 3 3 3
19 19 18 18 17 15 16 18 18 15 13 13 13 12 12 11 10 8 7 7 7 7 7 7 6 6 6 6 6 6 5 5 5 5 5 4 4 4 4 3 3 3 3 3
18 18 17 17 15 13 16 16 15 13 13 12 12 11 10 8 7 7 7 7 6 6 6 6 6 6 6 6 5 5 5 5 5 5 4 4 4 4 4 3 3 3 3 3
18 17 17 16 15 14 14 14 13 13 13 12 11 10 9 8 7 7 6 6 6 6 6 6 6 6 5 5 5 5 5 5 5 4 4 4 4 4 4 3 3 3 3 3
18 18 17 16 15 15 14 13 13 13 12 12 11 10 9 8 7 7 6 6 6 6 6 6 6 6 5 5 5 5 5 5 5 4 4 4 4 4 4 3 3 3 3 3
18 18 17 16 15 14 13 13 12 12 11 11 10 10 9 8 7 7 6 6 6 6 6 6 6 6 6 5 5 5 5 5 5 5 4 4 4 4 4 4 3 3 3 3
18 16 16 14 14 14 12 12 11 11 11 10 10 9 8 8 7 7 6 6 6 6 6 6 6 6 6 6 6 5 5 5 5 5 5 5 5 4 5 4 4 3 3 2
Wind_Speed
14 13 16 17 19 20 20 16 18 18 18 21 19 18 17 11 11 11 10 9 8 7 6 5 7 12 15 15 16 14 13 12 12 10 10 8 7 8 7 7 9 9 9 9
14 18 18 17 17 19 20 19 17 14 15 16 16 17 16 13 11 7 6 3 1 2 4 4 4 7 13 15 15 15 13 13 12 10 8 7 8 7 7 6 7 8 9 8
20 15 18 17 16 16 17 16 16 12 10 9 8 14 17 15 11 9 6 2 3 5 6 7 5 4 6 11 15 15 14 13 12 11 9 10 7 6 4 5 5 6 8 8
19 18 14 16 17 15 14 15 16 16 11 9 12 14 17 17 14 11 8 3 4 8 10 12 13 12 8 4 9 12 13 12 12 12 12 13 9 7 5 5 6 7 9 9
16 18 16 14 14 14 14 14 15 16 14 13 13 15 16 18 20 16 7 7 11 13 15 15 16 15 14 12 7 10 12 12 11 11 11 10 9 8 8 9 10 10 8 10
16 15 15 14 13 13 13 15 14 14 14 17 17 16 17 10 11 10 12 15 16 16 15 15 15 15 14 14 13 13 14 13 11 11 10 10 12 12 12 11 10 9 7 7
13 15 14 12 13 15 13 13 10 11 13 17 17 17 11 7 17 19 19 17 16 15 14 14 15 15 14 14 14 14 15 14 12 12 11 11 12 12 12 12 10 9 7 7
13 13 14 13 14 12 14 16 13 11 13 14 20 20 7 17 20 20 19 17 16 15 14 14 14 13 13 14 14 15 15 15 14 13 13 11 11 10 10 11 10 9 8 8
6 11 14 15 14 16 14 16 17 17 19 16 13 8 13 17 18 18 18 17 15 14 14 13 13 13 13 14 14 14 15 15 15 14 14 14 13 13 13 12 11 10 9 8
7 7 9 13 13 16 16 14 10 13 15 16 14 8 11 17 16 16 16 16 14 14 13 13 12 12 12 13 13 14 15 15 14 14 13 13 13 12 12 12 12 10 9 7
7 6 5 8 12 13 14 16 14 12 13 15 14 3 6 17 17 17 16 15 14 13 12 11 11 11 12 12 13 13 14 15 14 14 14 13 13 13 13 12 11 10 9 7
5 5 7 8 9 11 12 14 13 12 13 13 12 1 11 17 18 19 17 15 13 13 12 11 11 11 11 12 13 13 13 14 14 13 13 13 13 12 12 11 10 9 7 6
8 5 7 8 7 6 8 9 11 9 10 12 13 1 12 17 17 17 17 15 13 13 12 11 10 10 11 12 12 13 13 13 13 13 14 13 12 12 11 10 8 7 6 5
4 7 8 4 5 7 10 11 11 8 8 11 9 2 8 12 15 15 15 14 13 12 11 11 11 10 11 11 12 12 13 12 13 13 13 12 11 10 9 9 7 7 6 6
6 8 9 5 6 5 4 8 10 10 8 6 3 4 5 9 13 13 13 13 14 13 13 12 11 10 10 11 11 12 12 12 12 13 13 12 11 10 9 8 8 7 6 6
6 8 11 10 6 5 2 2 5 6 7 7 7 9 10 12 12 12 12 12 13 13 13 12 11 11 11 11 11 12 11 11 11 12 12 11 10 9 8 7 6 6 5 5
7 7 8 10 10 6 1 7 7 8 12 10 8 7 12 13 12 10 10 11 12 12 12 12 11 11 10 10 10 10 10 10 11 11 10 9 8 7 6 5 5 5 5 5
6 7 6 7 7 4 6 10 9 10 15 14 13 14 15 15 14 14 12 13 13 12 12 11 10 10 9 9 9 9 9 9 9 9 8 7 6 5 4 4 5 4 4 4
3 4 5 5 5 3 7 10 10 7 10 12 11 13 15 17 16 14 13 13 12 11 11 9 8 8 8 8 8 8 8 8 8 8 7 5 4 4 4 4 4 3 3 2
2 3 5 6 6 3 5 7 8 3 5 10 9 9 9 7 7 6 8 12 12 11 9 9 8 8 7 7 7 8 8 7 7 6 5 3 3 4 5 5 4 3 2 2
6 5 4 5 3 5 10 12 8 3 4 8 10 11 9 8 9 10 11 11 11 10 9 8 8 7 6 6 6 6 6 6 5 5 4 3 4 4 5 3 2 2 2 2
6 6 6 6 4 4 12 9 8 6 8 10 12 14 16 17 16 14 12 11 11 10 9 8 8 7 6 6 6 6 5 5 4 5 4 4 3 2 5 2 1 1 3 3
4 6 5 5 4 6 10 10 8 8 9 9 10 13 15 16 15 14 12 11 10 9 8 7 8 8 6 6 5 6 5 4 4 4 4 3 3 2 2 1 1 1 2 3
4 4 2 3 7 8 9 9 9 8 7 7 8 11 14 15 14 13 11 10 9 9 8 8 8 8 6 4 4 4 4 3 4 3 3 2 2 2 1 1 1 2 3 5
4 4 2 2 6 8 9 8 7 6 6 6 8 10 13 15 14 13 11 10 9 8 7 7 7 7 7 6 5 4 4 3 2 2 2 2 2 2 3 2 1 3 5 5
4 5 3 4 5 4 6 6 5 4 5 6 9 12 14 15 14 13 11 9 9 9 8 7 7 7 6 6 5 4 3 3 2 0 2 3 2 2 3 1 3 6 6 8
Wind_Direction
203 214 220 224 226 244 254 251 237 231 212 201 217 231 238 212 209 212 207 213 198 197 177 170 161 163 157 154 156 162 169 160 159 162 164 161 144 123 114 109 115 114 115 114
206 221 230 233 232 236 256 269 264 237 208 195 211 231 239 234 209 214 233 213 105 79 67 74 120 150 154 155 158 163 166 165 166 165 157 144 127 119 117 109 98 100 106 106
222 218 224 241 243 238 245 258 265 259 197 183 225 244 247 245 225 199 209 227 41 37 37 42 52 93 147 160 164 170 167 164 164 147 129 123 113 112 111 110 95 84 93 99
229 236 227 228 240 242 244 250 265 274 255 217 205 236 237 238 234 217 199 153 73 44 38 35 35 38 42 101 153 151 150 150 147 138 144 148 149 143 129 116 99 86 83 89
223 227 233 232 234 239 244 247 248 259 267 263 236 237 243 225 224 216 170 111 76 59 50 43 37 33 34 39 79 120 123 121 127 131 141 139 132 120 113 106 98 87 78 79
234 228 230 235 235 240 243 249 242 238 248 247 245 250 253 252 235 165 115 86 74 67 58 48 42 38 40 44 59 84 97 98 103 113 122 124 124 120 117 109 104 93 87 85
232 236 235 235 230 225 229 237 227 219 229 242 236 240 241 80 79 101 99 87 76 67 62 54 48 46 47 51 62 75 86 88 89 93 95 104 111 112 112 111 107 106 102 96
211 225 223 222 231 231 215 233 238 235 231 237 227 225 186 110 100 100 98 93 83 73 66 60 54 53 56 58 64 74 81 84 85 86 87 88 91 96 100 102 107 106 104 100
243 228 211 211 220 240 229 226 246 264 280 284 263 183 115 119 115 112 107 99 89 81 73 66 61 60 62 65 67 74 80 82 82 84 86 84 86 92 99 102 102 102 104 106
297 282 218 203 211 228 245 240 238 248 264 275 277 187 170 154 137 123 113 104 97 88 79 72 68 68 69 71 73 74 79 83 84 84 87 93 94 98 100 100 98 101 102 102
280 288 267 213 211 229 231 242 251 259 259 262 271 310 86 145 137 125 114 107 100 93 86 81 79 79 81 81 81 81 82 83 84 87 90 93 96 97 98 99 101 102 103 105
329 298 288 274 255 242 242 245 248 251 262 271 276 33 99 123 124 121 114 108 103 99 95 93 91 90 90 90 89 89 89 89 91 93 93 92 93 94 95 96 97 99 101 102
344 305 286 286 282 276 276 271 267 266 265 270 274 125 95 108 112 115 116 113 109 106 103 99 94 92 93 93 95 96 96 98 100 100 98 96 94 94 95 96 97 99 99 94
303 293 290 274 268 295 294 311 316 282 260 266 281 110 113 110 117 118 119 119 116 111 108 103 96 90 90 93 96 98 99 101 102 100 98 95 94 94 94 93 88 83 77 74
330 298 306 281 217 230 292 320 327 321 316 306 354 69 107 108 115 116 118 120 118 114 109 104 99 93 89 88 88 90 92 94 96 98 96 94 91 89 85 81 75 67 57 58
332 309 308 294 255 235 229 290 307 314 353 11 52 67 76 87 95 107 118 121 117 112 108 102 94 88 85 83 85 84 84 87 92 95 95 94 92 89 84 81 76 67 56 43
329 330 312 299 304 282 55 24 21 27 29 27 48 83 97 87 84 95 109 111 110 108 102 94 87 80 77 79 84 86 86 88 91 92 93 94 96 93 88 89 82 70 56 48
330 326 303 294 302 310 57 25 28 47 45 45 69 84 90 89 77 66 77 95 96 94 91 88 88 88 84 84 88 92 94 95 99 99 99 100 100 97 93 85 74 65 52 40
357 324 307 306 307 86 38 8 359 16 52 49 81 103 111 110 85 60 62 82 94 98 101 101 100 102 102 102 107 108 106 105 106 104 102 98 96 96 92 81 69 61 48 23
331 287 290 315 327 35 26 344 322 312 67 46 78 107 133 126 92 86 84 92 95 96 100 105 105 104 103 104 109 111 113 112 113 115 114 108 93 83 80 68 54 46 15 9
335 321 328 330 344 71 5 357 346 18 63 58 73 83 89 82 104 119 111 102 103 104 106 109 110 107 106 110 112 113 116 121 130 133 134 127 107 109 101 82 55 13 1 358
340 347 3 0 11 36 10 28 49 82 94 85 87 96 101 106 113 117 114 112 111 112 114 116 112 107 108 113 116 118 124 141 151 141 127 110 95 83 102 102 67 356 330 314
29 23 357 34 70 84 63 74 85 92 93 94 104 117 122 123 123 121 119 118 118 119 119 117 114 111 111 116 125 129 141 152 136 119 111 109 101 80 74 353 309 323 329 334
89 74 26 73 103 97 83 82 79 85 97 104 117 128 131 127 127 127 126 126 125 124 123 125 124 120 122 131 128 120 122 123 125 128 143 174 166 177 186 284 327 13 13 9
348 345 5 77 104 103 84 74 73 79 94 113 124 132 133 132 133 133 132 132 130 128 129 130 124 121 119 116 109 106 109 113 122 149 203 231 209 195 223 214 44 38 65 62
49 36 19 65 56 69 88 75 67 86 105 119 123 124 129 132 132 132 130 130 129 128 125 120 117 111 107 106 101 95 96 94 78 338 280 271 239 238 266 185 135 71 104 114
Height
1474 1476 1474 1470 1467 1465 1459 1456 1455 1447 1440 1448 1453 1452 1448 1446 1449 1451 1454 1456 1459 1463 1466 1470 1474 1478 1483 1487 1491 1495 1502 1506 1510 1513 1517 1520 1523 1525 1528 1531 1534 1536 1537 1538
1472 1473 1466 1463 1460 1461 1461 1460 1451 1440 1434 1443 1451 1452 1447 1446 1448 1451 1453 1456 1460 1462 1466 1469 1472 1476 1480 1483 1488 1493 1498 1503 1506 1510 1514 1517 1519 1521 1524 1528 1531 1532 1533 1534
1467 1463 1462 1461 1460 1461 1461 1461 1453 1446 1439 1444 1453 1458 1451 1446 1446 1450 1455 1458 1462 1465 1468 1470 1473 1475 1479 1482 1485 1489 1494 1499 1503 1507 1509 1511 1515 1518 1522 1524 1527 1529 1530 1531
1462 1458 1457 1460 1461 1459 1464 1456 1453 1451 1451 1455 1459 1472 1456 1448 1446 1449 1454 1459 1464 1467 1470 1472 1473 1475 1477 1480 1483 1486 1491 1496 1500 1503 1505 1508 1511 1515 1519 1522 1524 1525 1527 1528
1457 1455 1456 1458 1457 1456 1459 1454 1455 1455 1457 1460 1456 1466 1455 1443 1447 1449 1455 1461 1466 1469 1473 1475 1476 1477 1479 1480 1481 1484 1488 1493 1497 1500 1503 1507 1510 1513 1516 1519 1521 1523 1525 1526
1451 1449 1450 1452 1452 1453 1454 1455 1454 1456 1460 1473 1463 1466 1459 1443 1439 1447 1458 1465 1469 1472 1475 1478 1479 1480 1481 1481 1482 1484 1488 1492 1496 1499 1503 1506 1508 1511 1514 1517 1519 1521 1523 1525
1455 1449 1447 1449 1452 1453 1455 1464 1473 1476 1477 1471 1455 1459 1454 1450 1446 1453 1463 1469 1472 1476 1478 1480 1482 1483 1483 1484 1485 1486 1489 1493 1496 1500 1502 1505 1508 1511 1514 1516 1519 1521 1523 1525
1459 1457 1447 1446 1450 1452 1455 1460 1473 1479 1472 1460 1447 1450 1447 1451 1456 1462 1467 1472 1476 1479 1482 1483 1485 1486 1487 1487 1488 1489 1491 1494 1498 1501 1503 1506 1508 1511 1514 1517 1519 1522 1523 1525
1452 1452 1439 1442 1444 1448 1453 1456 1453 1461 1459 1460 1443 1439 1456 1454 1460 1465 1471 1475 1479 1482 1485 1487 1489 1490 1491 1491 1492 1493 1495 1497 1500 1502 1505 1507 1510 1513 1515 1518 1520 1523 1525 1527
1448 1451 1440 1438 1442 1444 1446 1447 1454 1462 1471 1469 1449 1445 1451 1457 1462 1468 1474 1479 1483 1485 1487 1490 1492 1493 1494 1495 1496 1497 1499 1500 1503 1505 1507 1510 1513 1515 1518 1520 1523 1525 1527 1529
1447 1453 1446 1441 1445 1447 1447 1450 1451 1452 1452 1463 1463 1459 1440 1452 1461 1470 1478 1483 1486 1488 1491 1493 1495 1497 1498 1499 1500 1502 1503 1505 1507 1509 1511 1514 1516 1518 1521 1523 1525 1527 1529 1531
1449 1452 1455 1447 1439 1438 1441 1445 1448 1460 1459 1452 1456 1464 1445 1453 1463 1472 1480 1487 1490 1493 1495 1497 1499 1501 1502 1503 1505 1506 1508 1509 1511 1514 1515 1517 1520 1522 1524 1526 1528 1530 1532 1534
1459 1459 1465 1462 1455 1447 1447 1445 1446 1448 1452 1456 1461 1468 1457 1463 1472 1478 1484 1490 1494 1497 1499 1501 1503 1505 1506 1508 1509 1511 1513 1514 1516 1518 1520 1522 1524 1525 1527 1529 1531 1533 1534 1535
1463 1462 1468 1482 1480 1471 1463 1456 1452 1453 1459 1459 1458 1465 1466 1471 1477 1483 1489 1493 1497 1500 1503 1505 1507 1509 1511 1512 1514 1516 1518 1519 1521 1522 1524 1525 1527 1529 1531 1532 1534 1535 1536 1537
1464 1464 1461 1462 1462 1463 1463 1461 1460 1461 1459 1463 1464 1467 1472 1476 1481 1487 1492 1497 1500 1503 1506 1508 1510 1512 1514 1516 1518 1520 1522 1523 1524 1525 1527 1529 1530 1532 1533 1534 1535 1536 1537 1538
1465 1467 1464 1462 1458 1459 1463 1465 1466 1466 1465 1465 1468 1478 1481 1485 1487 1491 1496 1500 1503 1506 1508 1511 1513 1515 1517 1519 1521 1523 1525 1526 1527 1528 1530 1531 1532 1534 1535 1536 1537 1537 1537 1538
1467 1469 1470 1467 1458 1457 1471 1472 1470 1470 1470 1469 1477 1485 1487 1491 1495 1498 1499 1502 1506 1508 1511 1513 1515 1517 1520 1522 1524 1525 1527 1529 1530 1531 1532 1533 1534 1535 1536 1537 1538 1538 1538 1538
1474 1473 1472 1469 1468 1480 1485 1475 1473 1475 1479 1479 1485 1490 1494 1499 1502 1503 1504 1506 1509 1511 1513 1516 1518 1520 1522 1524 1526 1527 1529 1530 1531 1532 1534 1535 1536 1537 1538 1538 1538 1538 1538 1538
1473 1475 1474 1473 1476 1483 1486 1483 1480 1481 1488 1490 1492 1496 1500 1502 1504 1509 1510 1511 1513 1516 1518 1520 1521 1523 1524 1526 1528 1529 1531 1532 1533 1534 1536 1537 1538 1539 1539 1539 1539 1539 1539 1538
1471 1472 1476 1475 1483 1493 1496 1485 1481 1482 1495 1497 1496 1499 1501 1501 1506 1516 1516 1516 1518 1520 1521 1523 1524 1526 1527 1529 1530 1531 1532 1534 1535 1537 1538 1539 1540 1540 1540 1540 1540 1540 1539 1539
1476 1474 1477 1480 1485 1495 1492 1486 1482 1494 1505 1502 1501 1502 1503 1505 1510 1517 1518 1519 1520 1522 1524 1525 1527 1528 1530 1531 1532 1533 1534 1536 1538 1539 1540 1541 1541 1541 1541 1540 1540 1540 1540 1538
1482 1482 1483 1485 1492 1505 1496 1491 1496 1504 1503 1504 1505 1506 1506 1510 1514 1517 1519 1521 1523 1525 1527 1528 1529 1531 1532 1533 1535 1536 1537 1538 1539 1541 1541 1542 1542 1543 1542 1541 1541 1540 1539 1538
1484 1489 1489 1493 1501 1501 1500 1501 1503 1504 1505 1507 1508 1510 1510 1513 1516 1519 1522 1524 1526 1528 1529 1531 1532 1534 1535 1536 1537 1538 1539 1540 1541 1542 1542 1543 1543 1543 1543 1542 1541 1541 1540 1538
1485 1489 1490 1494 1498 1500 1502 1504 1505 1506 1508 1509 1510 1511 1513 1516 1519 1522 1524 1527 1529 1530 1532 1534 1535 1537 1538 1539 1540 1541 1542 1542 1542 1543 1543 1543 1543 1543 1542 1542 1541 1541 1540 1538
1489 1489 1491 1495 1499 1502 1505 1507 1508 1509 1510 1510 1512 1513 1515 1518 1521 1524 1527 1529 1531 1533 1535 1537 1538 1540 1541 1542 1542 1543 1543 1543 1543 1543 1543 1543 1543 1542 1542 1541 1540 1540 1538 1537
1490 1493 1495 1500 1503 1503 1507 1508 1509 1509 1510 1511 1513 1515 1518 1520 1523 1526 1529 1532 1534 1536 1538 1540 1541 1542 1543 1544 1544 1545 1544 1544 1544 1543 1543 1543 1543 1542 1541 1540 1539 1538 1537 1535